Regional Weather Roundup
Issued by NWS Green Bay, WI

Home | Current Version | Previous Version | Graphics & Text | Print | Product List | Glossary Off
Versions: 1 2 3 4 5 6 7 8 9 10 11 12 13 14 15 16 17 18 19 20 21 22 23 24 25 26 27 28 29 30 31 32 33 34 35 36 37 38 39 40 41 42 43 44 45 46 47 48 49 50

000
ASUS43 KGRB 292011
RWRGRB

NORTH-CENTRAL AND NORTHEAST WISCONSIN REGIONAL WEATHER ROUNDUP
NATIONAL WEATHER SERVICE GREEN BAY WI
300 PM CDT SAT AUG 29 2015

WIZ005-009-010>012-018-019-292100-
NORTH CENTRAL WISCONSIN

CITY           SKY/WX    TMP DP  RH WIND       PRES   REMARKS
IRONWOOD       CLOUDY    73  63  68 SW7       30.00F
MANITOWISH WTR CLOUDY    75  60  58 CALM      30.04F
ARBOR VITAE    MOSUNNY   77  63  61 S6        30.05F
EAGLE RIVER    SUNNY     75  56  51 CALM      30.05F
LAND O LAKES   MOSUNNY   76  57  51 CALM      30.05F
RHINELANDER    MOSUNNY   73  57  57 SW5       30.07F
PHILLIPS       SUNNY     74  61  63 SW6       30.05F
ANTIGO         CLOUDY    67  58  73 SW3       30.07F
TOMAHAWK       SUNNY     71  59  66 CALM      30.06F
MERRILL        PTSUNNY   70  61  73 CALM      30.07F
$$

WIZ013-073-292100-
NORTHEAST WISCONSIN

CITY           SKY/WX    TMP DP  RH WIND       PRES   REMARKS
IRON MOUNTAIN  MOSUNNY   75  60  59 SE6       30.02F
MARINETTE      CLOUDY    68  59  73 CALM      30.05S
OCONTO         CLOUDY    67  63  88 N3        30.05F
$$

WIZ017-030-035>037-045-292100-
CENTRAL WISCONSIN

CITY           SKY/WX    TMP DP  RH WIND       PRES   REMARKS
MEDFORD        PTSUNNY   67  60  79 CALM      30.07F
WAUSAU         CLOUDY    66  59  78 W3        30.05F
MOSINEE        CLOUDY    64  61  88 E3        30.08F
MARSHFIELD     CLOUDY    66  58  75 E3        30.07F
WISC RAPIDS    NOT AVBL
STEVENS POINT  CLOUDY    62  58  86 CALM      30.07S
WAUPACA        CLOUDY    69  63  81 CALM      30.06S
SHAWANO        CLOUDY    71  62  72 CALM      30.06F
CLINTONVILLE   CLOUDY    68  59  73 CALM      30.06S
WAUTOMA        CLOUDY    68  63  84 NE5       30.06S
$$

WIZ038-039-048-051-292100-
FOX VALLEY

CITY           SKY/WX    TMP DP  RH WIND       PRES   REMARKS
NWS GREEN BAY  CLOUDY    70  62  76 CALM      30.04F
APPLETON       CLOUDY    68  59  73 VRB3      30.03F
OSHKOSH        MOSUNNY   70  61  73 VRB3      30.04F
FOND DU LAC    CLOUDY    70  62  76 NE5       30.04F
$$

WIZ022-050-052-292100-
EAST CENTRAL WISCONSIN

CITY           SKY/WX    TMP DP  RH WIND       PRES   REMARKS
EPHRAIM        CLOUDY    67  61  81 W3        30.05F
STURGEON BAY   CLOUDY    66  61  82 S7        30.07F
MANITOWOC      MOSUNNY   67  61  81 MISG      30.05F
SHEBOYGAN      CLOUDY    65  61  87 S5        30.05F
$$

LMZ563-521-522-541>543-292100-
LAKESHORE

STATION/POSITION TIME  TEMP    WIND        PRES    VSBY  WAVE
                       AIR SEA DIR/SP/G                  HT/PER
                 (UTC) (F)     (DEG/KT/KT) (MB)    (MI)  (FT/S)
SHEBOYGAN LKSHOR 2000   60     120/  6/  6 1017.9F
NORTHPORT PIER   1900   66     150/  7/ 12 1017.9F
N MID LAKE BUOY  1950   64 65  220/  6/  6 1017.6F         1
SISTER BAY LKSHO 1904   72        CALM       N/A
CHAMBERS ISLAND  1900   66     240/  4/  6 1017.9F
$$



USA.gov is the U.S. government's official web portal to all federal, state and local government web resources and services.